NOAA 16 DEB, 41236

Orbit data source: Space-Track

NOAA 16 DEB, 41236 is space debris in SSO originally from a launch on Thu, 21 Sep 2000 UTC launched from the Air Force Western Test Range (AFWTR). Debris objects in space refer to the collection of defunct objects orbiting the Earth. Examples of debris include non-operational satellites, rocket bodies, and fragments generated from explosions, collisions, or faulty payload assembly.

Loading next visibility...
Identifier
41236, 2000-055ER
Orbit
SSO
Last TLE update
2 days ago
Origin
Manufacturer
Unknown
Mission
Spacecraft
Bus & Motor
Unknown
Mass
Unknown
Launch date (UTC)
2000-09-21 (25 years ago)
Launch vehicle
Unknown
Launch site
Air Force Western Test Range (AFWTR)
Object type
Payload
Rocket body
Debris
Shape & HBR
Unknown
Radar Cross Section
Small (<0.1 m²)

Expand to show TLE details & history

TLE from 2 days ago
0 NOAA 16 DEB
1 41236U 00055ER  25127.07200859  .00007124  00000-0  20680-2 0  9996
2 41236  99.0754 349.6299 0032305 240.0230 119.7750 14.44363971488987
Epoch: 2025-05-07T01:43Z
Definitive object data (Epoch: 2025-05-07T01:43:41.542Z)
Latitude
-0.00009°
Longitude
98.54471°
Altitude
758.536 km
Speed
7.469 km/s
True Right ascension
23h 18m 31s
True Declination
0° 00' 00"
Sunlit
Object was in daylight at TLE epoch
Visualization TLE readout
Latitude
-29.00012°
Longitude
105.9555°
Altitude
757.718 km
Speed
7.473 km/s
Apparent Right ascension
01h 10m 18s
Apparent Declination
-36° 17' 26"
Sunlit
Object is in daylight
Visualization observer readout
Local Sidereal Time
14:56:34
Azimuth
88.63° E
Elevation
-68.863°
Doppler factor
1
Orbital elements
Apogee altitude
764.26 km
Perigee altitude
718.261 km
Semi-major axis
7,119.397 km
Eccentricity
0.0032305
Inclination
99.0754°
RAAN
349.6299°
Arg. of periapsis
240.023°
True anomaly
120.09567°
Mean anomaly
119.775°
Eccentric anomaly
119.9354°
Mean motion
3.61309 °/min
BSTAR
0.002068
Orbital period
99.64 mins
Loading maneuver chart data...
Loading SW <> Apogee altitude chart data...
Loading historical data...
Loading historical data...
Loading historical data...
Loading historical data...
Loading historical data...
Loading historical data...
Loading historical data...

NOAA 16 DEB Visibility forecast

Observer location: undefined°, undefined°

Span
Click to sort rows by Start time (UTC) header in descending order
Start Az.
Max El. time (UTC)
Max El. Az.
Max El.
End time (UTC)
End Az.
7 mins2025-05-09 13:43:41.187Z113.995° SE2025-05-09 13:47:41.187Z56.012° ENE22.099°2025-05-09 13:50:41.187Z16.4° NNE
7 mins2025-05-09 15:22:41.187Z205.467° SW2025-05-09 15:25:41.187Z268.716° W32.226°2025-05-09 15:29:41.187Z327.806° NNW
7 mins2025-05-10 03:28:41.187Z27.68° NE2025-05-10 03:31:41.187Z91.283° ESE40.725°2025-05-10 03:35:41.187Z178.989° S
4 mins2025-05-10 05:08:41.187Z314.502° NW2025-05-10 05:09:41.187Z300.376° NW15.631°2025-05-10 05:12:41.187Z262.067° W
|